Regional Weather Roundup
Issued by NWS

Home | Current Version | Previous Version | Graphics & Text | Print | Product List | Glossary Off
Versions: 1 2 3 4 5 6 7 8 9 10 11 12 13 14 15 16 17 18 19 20 21 22 23 24 25 26 27 28 29 30 31 32 33 34 35 36 37 38 39 40 41 42 43 44 45 46 47 48 49 50

595
ASUS43 KTOP 250708
RWRKS

WEATHER ROUNDUP FOR KANSAS
NATIONAL WEATHER SERVICE GOODLAND KS
200 AM CDT WED MAY 25 2016

NOTE:  "FAIR" INDICATES FEW OR NO CLOUDS BELOW 12,000 FEET WITH NO
SIGNIFICANT WEATHER AND/OR OBSTRUCTIONS TO VISIBILITY.

KSZ001>006-013>018-027>032-041>047-250800-
NORTHWEST KANSAS

CITY           SKY/WX    TMP DP  RH WIND       PRES   REMARKS
GOODLAND       MOCLDY    56  54  93 NE7       29.79R
HAYS           CLOUDY    57  52  82 SE20      29.79F
HILL CITY      CLOUDY    62  55  77 SE10      29.77F
RUSSELL        CLOUDY    61  57  87 SE15      29.79F
$$

KSZ061>065-074>080-084>089-250800-
SOUTHWEST KANSAS

CITY           SKY/WX    TMP DP  RH WIND       PRES   REMARKS
DODGE CITY     CLOUDY    71  69  93 S15       29.78F
ELKHART          N/A     62  43  50 SW10        N/A
GARDEN CITY    PTCLDY    68  66  93 S13       29.76F
GREAT BEND     CLOUDY    64  54  68 SE16      29.82F
LIBERAL        CLEAR     70  64  83 S14       29.80S
PRATT          CLOUDY    59  56  91 E8        29.84F
$$

KSZ066>073-081>083-090>101-250800-
SOUTHEAST KANSAS

CITY           SKY/WX    TMP DP  RH WIND       PRES   REMARKS
CHANUTE        CLOUDY    70  59  68 NW20G31   29.96R
COFFEYVILLE    CLOUDY    77  62  59 NW12G23   29.83F
HUTCHINSON     CLOUDY    62  59  90 SE6       29.83F
MEDICINE LODGE   N/A     68  62  81 E13       29.80F
NEWTON         CLOUDY    63  57  82 E9        29.90R THUNDER
PARSONS        CLOUDY    73  67  81 NW20G29   29.94R
WICHITA INTL   TSTM      63  61  93 NE15      29.87S
WICHITA JABRA  CLOUDY    62  32  32 NE14      29.89R THUNDER
WICHITA MCCONL CLOUDY    62  60  94 E9        29.89S
WINFIELD       CLOUDY    64  61  90 NE21G28   29.92R THUNDER
$$

KSZ007>012-019>026-033>040-048>060-102>105-250800-
NORTHEAST KANSAS

CITY           SKY/WX    TMP DP  RH WIND       PRES   REMARKS
CONCORDIA      CLOUDY    64  55  72 E8        29.72F
EMPORIA        LGT RAIN  63  60  90 NE5       29.94S
LAWRENCE         N/A    N/A N/A N/A MISG      29.91R
MARYSVILLE     LGT RAIN  61  59  94 CALM      29.85F
OLATHE IND     CLOUDY    68  65  90 S10       29.91S
OLATHE EXE     CLOUDY    65  63  93 S7        29.90F
SALINA         CLOUDY    63  59  87 SE12      29.83R
TOPEKA BILLARD TSTM      63  61  93 NW7       29.92F FOG
TOPEKA FORBES  TSTM      64  60  87 NW17      29.92F
$$




USA.gov is the U.S. government's official web portal to all federal, state and local government web resources and services.